Regional Weather Roundup
Issued by NWS

Home | Current Version | Previous Version | Graphics & Text | Print | Product List | Glossary On
Versions: 1 2 3 4 5 6 7 8 9 10 11 12 13 14 15 16 17 18 19 20 21 22 23 24 25 26 27 28 29 30 31 32 33 34 35 36 37 38 39 40 41 42 43 44 45 46 47 48 49 50
000
ASUS43 KLMK 182002
RWRKY
KENTUCKY REGIONAL WEATHER ROUNDUP
NATIONAL WEATHER SERVICE LOUISVILLE KY
400 PM EDT SAT APR 18 2015

NOTE "FAIR" INDICATES FEW OR NO CLOUDS BELOW 12,000 FEET
WITH NO SIGNIFICANT WEATHER AND/OR OBSTRUCTIONS TO VISIBILITY.

KYZ001>023-026-027-061>063-070>075-182100-
WESTERN AND SOUTH CENTRAL KENTUCKY

CITY           SKY/WX    TMP DP  RH WIND       PRES   REMARKS
PADUCAH        CLOUDY    78  58  49 SE8       29.90F
HENDERSON      PTSUNNY   77  55  47 N9        29.92F
OWENSBORO      PTSUNNY   80  55  42 E8        29.93F
HOPKINSVILLE   MOSUNNY   77  59  52 VRB7      29.92F
BOWLING GREEN  PTSUNNY   80  56  43 CALM      29.94F
GLASGOW        NOT AVBL
$$

KYZ024-025-028>034-038-045-046-053-182100-
NORTH CENTRAL KENTUCKY

CITY           SKY/WX    TMP DP  RH WIND       PRES   REMARKS
LOUISVILLE/SDF PTSUNNY   81  46  29 NE10      29.97F
LOUISVILLE/LOU MOSUNNY   79  43  27 E9        29.97F
FORT KNOX      MOSUNNY   79  50  36 NE9       29.94F
$$

KYZ035>037-039>044-047>052-055>060-089>105-182100-
NORTHEAST KENTUCKY

CITY           SKY/WX    TMP DP  RH WIND       PRES   REMARKS
LEXINGTON      SUNNY     77  49  37 NE12      29.98F
COVINGTON      PTSUNNY   78  46  32 E14       30.01F
FRANKFORT      MOSUNNY   77  47  34 E10       29.97F
$$

KYZ054-064>069-076>088-106>120-182100-
SOUTHEAST KENTUCKY

CITY           SKY/WX    TMP DP  RH WIND       PRES   REMARKS
JACKSON        MOSUNNY   82  49  31 CALM      29.97F
LONDON         MOSUNNY   82  50  32 VRB5      29.95F
SOMERSET       NOT AVBL
MIDDLESBORO    NOT AVBL
MONTICELLO     PTCLDY    80  57  45 NE9       29.96F
$$




USA.gov is the U.S. government's official web portal to all federal, state and local government web resources and services.